Total_Precipitation_Accumulation
1.94 1.89 1.79 1.80 1.75 1.94 2.13 2.42 2.35 2.59 2.53 2.25 1.90 1.71 1.70 1.68 1.60 1.81 2.08 2.16 2.00 2.02 2.67 3.08 2.96 2.66 2.26 1.84 1.57 1.45 1.34 1.16 0.99 0.78 0.71 0.75 0.77 0.77 0.67 0.51 0.43 0.35 0.27
2.41 2.33 2.11 2.08 1.96 2.03 2.33 2.59 2.61 2.98 2.82 2.66 2.18 2.02 1.87 1.78 1.74 1.92 2.13 2.35 2.32 2.27 2.56 3.00 3.25 3.15 2.76 2.23 1.81 1.57 1.47 1.39 1.25 0.94 0.77 0.77 0.82 0.84 0.79 0.66 0.51 0.40 0.31
2.55 2.41 2.25 2.16 2.27 2.40 2.59 2.63 2.73 3.03 2.76 2.65 2.45 2.27 2.06 1.87 1.77 1.96 2.22 2.52 2.34 2.26 2.54 2.90 3.26 3.19 3.00 2.69 2.22 1.92 1.70 1.55 1.46 1.18 0.89 0.78 0.78 0.80 0.79 0.75 0.61 0.45 0.31
2.57 2.61 2.36 2.17 2.41 2.56 2.73 2.88 2.85 2.91 2.90 2.85 2.68 2.33 2.17 2.05 1.83 1.90 2.02 2.17 2.32 1.96 2.32 2.85 3.02 2.89 2.90 3.01 2.91 2.70 2.36 1.98 1.75 1.44 1.12 0.93 0.84 0.82 0.80 0.77 0.66 0.47 0.29
2.48 2.73 2.52 2.49 2.63 2.82 2.73 2.55 2.89 3.01 2.94 2.90 2.60 2.42 2.06 1.91 1.85 1.77 1.85 1.94 2.15 2.09 2.09 2.27 2.70 2.63 2.83 3.18 3.36 3.44 3.20 2.76 2.26 1.88 1.53 1.26 1.13 0.99 0.84 0.78 0.70 0.50 0.32
2.44 2.69 2.47 2.54 2.73 2.89 2.93 2.93 2.99 2.97 2.85 2.90 2.56 2.31 1.99 1.68 1.63 1.58 1.51 1.66 1.77 1.60 1.68 1.85 2.18 1.96 2.19 2.59 3.01 3.44 3.69 3.62 3.09 2.46 2.14 1.92 1.73 1.42 1.05 0.83 0.68 0.57 0.42
2.35 2.61 2.34 2.65 2.78 2.79 2.92 2.97 3.09 2.97 2.81 2.98 2.83 2.32 1.84 1.53 1.37 1.25 1.28 1.39 1.37 1.46 1.69 1.97 2.22 2.24 2.03 2.06 2.26 2.72 3.42 3.94 3.79 3.22 2.89 2.68 2.45 2.03 1.40 1.03 0.74 0.59 0.51
2.25 2.39 2.65 2.70 2.77 2.81 2.84 2.80 2.83 2.64 2.45 2.80 2.83 2.60 2.00 1.62 1.28 1.10 1.27 1.26 1.36 1.62 1.65 1.70 2.00 2.30 2.20 2.21 2.01 2.00 2.84 3.76 4.17 4.04 3.81 3.53 3.16 2.46 1.80 1.37 0.95 0.69 0.59
2.35 2.46 2.62 2.71 2.63 2.54 2.59 2.68 2.58 2.44 2.27 2.40 2.67 2.68 2.19 1.70 1.35 1.11 1.15 1.23 1.54 1.71 1.64 1.62 1.63 1.73 1.80 2.15 2.41 2.17 2.27 2.60 3.26 4.09 4.47 4.39 3.74 2.71 2.02 1.66 1.35 0.98 0.72
2.08 2.18 2.25 2.41 2.47 2.45 2.41 2.37 2.35 2.36 2.29 2.16 2.39 2.47 2.32 2.05 1.78 1.30 1.07 1.13 1.40 1.52 1.47 1.37 1.43 1.60 1.71 2.02 2.29 2.04 1.84 1.75 1.99 2.92 3.80 4.02 3.65 2.78 2.14 1.90 1.84 1.54 1.06
1.89 1.88 1.98 2.17 2.22 2.14 2.13 2.26 2.42 2.40 2.24 2.09 2.18 2.28 2.41 2.34 2.04 1.68 1.26 1.18 1.20 1.14 1.26 1.28 1.30 1.40 1.61 1.90 2.09 1.82 1.77 1.57 1.47 1.77 2.38 2.86 2.98 2.66 2.26 2.17 2.33 2.24 1.79
1.81 1.75 1.77 1.87 1.94 1.93 1.90 1.93 2.04 2.08 2.06 2.14 2.16 2.16 2.26 2.25 2.14 2.02 1.62 1.39 1.27 1.00 1.06 1.13 1.21 1.27 1.36 1.53 1.49 1.54 1.64 1.47 1.31 1.28 1.51 1.89 2.22 2.35 2.24 2.31 2.51 2.57 2.44
1.74 1.70 1.64 1.58 1.59 1.61 1.69 1.84 1.87 1.87 1.96 2.06 2.08 2.11 2.05 1.98 2.06 2.05 1.85 1.57 1.39 1.06 1.07 1.01 1.05 1.15 1.12 1.35 1.46 1.53 1.44 1.30 1.21 1.16 1.19 1.32 1.55 1.73 1.92 2.07 2.33 2.59 2.72
1.67 1.55 1.41 1.37 1.35 1.37 1.46 1.63 1.80 1.81 1.90 1.95 1.90 1.95 1.85 1.78 1.91 1.89 1.85 1.85 1.66 1.47 1.42 1.24 1.02 1.01 1.08 1.17 1.27 1.33 1.23 1.17 1.04 0.96 0.96 1.03 1.15 1.29 1.43 1.64 1.87 2.03 2.19
1.36 1.32 1.29 1.28 1.24 1.27 1.31 1.34 1.47 1.49 1.57 1.63 1.71 1.69 1.61 1.61 1.71 1.75 1.84 1.91 1.85 1.70 1.66 1.56 1.22 1.01 1.02 1.13 1.33 1.18 1.10 1.03 0.94 0.86 0.78 0.80 0.85 0.94 1.04 1.16 1.34 1.51 1.59
1.25 1.19 1.19 1.19 1.15 1.13 1.15 1.18 1.21 1.27 1.26 1.30 1.48 1.50 1.49 1.51 1.62 1.65 1.71 1.85 1.95 1.95 1.79 1.61 1.43 1.16 1.16 1.07 1.18 1.16 1.13 1.07 0.90 0.78 0.69 0.67 0.70 0.78 0.88 0.95 1.02 1.15 1.20
1.18 1.19 1.15 1.12 1.02 0.96 0.96 0.98 0.99 1.09 1.10 1.10 1.18 1.21 1.27 1.38 1.52 1.58 1.62 1.68 1.89 2.05 1.93 1.83 1.71 1.58 1.44 1.28 1.13 1.12 1.12 1.06 0.89 0.76 0.63 0.59 0.63 0.66 0.71 0.80 0.89 0.99 1.07
0.93 0.94 0.94 1.00 1.03 1.01 0.99 0.97 0.94 0.92 0.98 1.01 1.07 1.17 1.23 1.36 1.47 1.45 1.54 1.62 1.81 2.03 2.10 2.23 2.27 2.03 1.73 1.51 1.39 1.23 1.00 0.91 0.91 0.79 0.64 0.57 0.55 0.59 0.62 0.67 0.74 0.87 0.98
0.83 0.83 0.84 0.87 0.89 0.97 1.08 1.10 1.08 1.08 1.10 1.03 1.08 1.18 1.17 1.21 1.30 1.33 1.44 1.57 1.72 1.87 2.04 2.15 2.28 2.10 1.92 1.62 1.62 1.43 1.18 1.10 0.89 0.83 0.72 0.61 0.56 0.55 0.56 0.62 0.68 0.74 0.82
0.85 0.83 0.79 0.80 0.83 0.83 0.90 1.05 1.10 1.10 1.08 1.03 1.03 1.03 0.99 1.02 1.11 1.19 1.25 1.42 1.57 1.71 1.83 1.87 2.01 2.08 2.10 2.07 2.00 1.77 1.60 1.40 1.13 0.89 0.85 0.68 0.61 0.57 0.56 0.56 0.60 0.68 0.79
0.78 0.82 0.75 0.72 0.77 0.81 0.79 0.81 0.93 0.97 0.96 0.95 0.97 0.90 0.79 0.79 0.83 0.87 0.93 1.17 1.34 1.48 1.64 1.74 1.87 2.05 2.16 2.29 2.15 2.02 1.89 1.76 1.50 1.30 1.28 1.00 0.85 0.71 0.60 0.58 0.59 0.61 0.69
0.74 0.74 0.68 0.67 0.68 0.62 0.63 0.59 0.62 0.71 0.76 0.79 0.83 0.86 0.77 0.66 0.61 0.63 0.65 0.77 0.96 1.12 1.36 1.62 1.81 2.03 2.11 2.09 2.20 2.20 2.12 1.98 1.85 1.67 1.63 1.59 1.42 1.24 1.00 0.74 0.68 0.60 0.57
0.72 0.71 0.65 0.61 0.61 0.60 0.48 0.43 0.43 0.53 0.62 0.65 0.70 0.76 0.67 0.59 0.58 0.54 0.59 0.65 0.71 0.78 0.92 1.24 1.52 1.64 1.67 1.68 1.91 2.11 2.11 2.03 2.00 1.88 1.88 1.95 1.84 1.59 1.22 1.02 0.89 0.72 0.63
0.70 0.71 0.66 0.62 0.66 0.62 0.48 0.40 0.36 0.35 0.49 0.59 0.62 0.66 0.69 0.69 0.62 0.60 0.60 0.65 0.64 0.64 0.66 0.74 0.90 1.05 1.23 1.39 1.60 1.89 2.13 2.11 2.13 2.09 2.02 2.15 2.06 1.90 1.54 1.19 0.98 0.77 0.68
0.66 0.66 0.67 0.68 0.69 0.67 0.48 0.37 0.35 0.42 0.53 0.57 0.60 0.61 0.64 0.69 0.63 0.53 0.54 0.60 0.64 0.65 0.57 0.59 0.63 0.76 0.91 1.06 1.25 1.49 1.76 2.04 2.29 2.33 2.11 2.14 2.12 2.12 2.08 1.67 1.25 0.99 0.78
0.70 0.64 0.65 0.69 0.69 0.73 0.54 0.33 0.30 0.43 0.59 0.65 0.74 0.72 0.58 0.54 0.54 0.41 0.45 0.55 0.57 0.58 0.54 0.56 0.59 0.61 0.67 0.81 0.94 1.15 1.34 1.58 1.84 2.03 2.00 2.06 2.19 2.44 2.57 2.17 1.62 1.18 0.96